Location: Poughquag
(41.6090°N, 73.6820°W)
Time: 09:05:04
(UTC-04:00)

Hubble Space Telescope - Visible Passes

Search period start: 17 October 2017 00:00
Search period end: 27 October 2017 00:00
Orbit: 537 x 541 km, 28.5° (Epoch: 16 October)

Date Brightness Start Highest point End Pass type
(mag) Time Alt. Az. Time Alt. Az. Time Alt. Az.
22 Oct 3.4 20:09:34 10° SSW 20:10:06 11° S 20:10:06 11° S visible
23 Oct 3.2 19:59:05 10° SSW 20:00:30 13° S 20:00:30 13° S visible
24 Oct 3.1 19:48:41 10° SSW 19:50:37 13° S 19:50:53 13° S visible
25 Oct 3.1 19:38:21 10° SSW 19:40:18 13° S 19:41:17 12° SSE visible
26 Oct 3.2 19:28:07 10° SSW 19:29:58 13° S 19:31:41 10° SSE visible
